Regional Weather Roundup
Issued by NWS

Home | Current Version | Previous Version | Graphics & Text | Print | Product List | Glossary Off
Versions: 1 2 3 4 5 6 7 8 9 10 11 12 13 14 15 16 17 18 19 20 21 22 23 24 25 26 27 28 29 30 31 32 33 34 35 36 37 38 39 40 41 42 43 44 45 46 47 48 49 50

048
ASUS43 KTOP 240208
RWRKS

WEATHER ROUNDUP FOR KANSAS
NATIONAL WEATHER SERVICE GOODLAND KS
900 PM CDT WED AUG 23 2017

NOTE:  "FAIR" INDICATES FEW OR NO CLOUDS BELOW 12,000 FEET WITH NO
SIGNIFICANT WEATHER AND/OR OBSTRUCTIONS TO VISIBILITY.

KSZ001>006-013>018-027>032-041>047-240300-
NORTHWEST KANSAS

CITY           SKY/WX    TMP DP  RH WIND       PRES   REMARKS
GOODLAND       CLEAR     74  62  66 S10       30.04R
HAYS           FAIR      71  50  47 SE9       30.02S
HILL CITY      FAIR      73  48  41 SE7       30.01S
RUSSELL        FAIR      72  49  44 SE8       30.02R
$$

KSZ061>065-074>080-084>089-240300-
SOUTHWEST KANSAS

CITY           SKY/WX    TMP DP  RH WIND       PRES   REMARKS
DODGE CITY     FAIR      72  49  44 SE10      30.05R HAZE
ELKHART          N/A     67  65  94 S5          N/A
GARDEN CITY    FAIR      73  61  65 SE8       30.04R
GREAT BEND     FAIR      69  51  52 SE8       30.04R
LIBERAL        FAIR      72  65  78 S9        30.07R
PRATT          FAIR      74  50  43 E7        30.04S
$$

KSZ066>073-081>083-090>101-240300-
SOUTHEAST KANSAS

CITY           SKY/WX    TMP DP  RH WIND       PRES   REMARKS
CHANUTE        FAIR      69  58  67 NE6       30.05R
COFFEYVILLE    FAIR      66  57  72 NE5       30.03R
HUTCHINSON     FAIR      66  53  63 E8        30.04R
MEDICINE LODGE   N/A     75  52  44 SE6       30.03R
NEWTON         FAIR      69  55  60 E7        30.06R
PARSONS        LGT RAIN  63  58  83 CALM      30.05R
WICHITA INTL   FAIR      73  53  49 E8        30.03R
WICHITA JABRA  FAIR      68  57  68 E5        30.04R
WICHITA MCCONL FAIR      73  52  47 SE7       30.04R
WINFIELD       FAIR      71  56  58 SE3       30.05R
$$

KSZ007>012-019>026-033>040-048>060-102>105-240300-
NORTHEAST KANSAS

CITY           SKY/WX    TMP DP  RH WIND       PRES   REMARKS
CONCORDIA      FAIR      65  57  75 SE9       30.03R
EMPORIA        FAIR      67  57  70 SE6       30.05R
LAWRENCE       FAIR      66  64  93 NE3       30.05R
MANHATTAN      FAIR      69  58  67 E3        30.04S
MARYSVILLE     FAIR      70  55  60 SE6       30.04R
OLATHE IND     FAIR      69  57  65 SE5       30.07R
OLATHE EXE     FAIR      68  58  70 CALM      30.07R
SALINA         FAIR      77  52  41 SE10      30.03R
TOPEKA BILLARD FAIR      70  61  73 CALM      30.05R
TOPEKA FORBES  FAIR      69  60  73 E5        30.05R
$$




USA.gov is the U.S. government's official web portal to all federal, state and local government web resources and services.